AC5CM Weather Reports


Display with metric or nautical units.
time (UTC)temp
F
wind
direction
speed
MPH
gust
MPH
rain 1hr
in
rain 24hr
in
rain mn
in
humidity
%
barometer
mb
20260505225803 81 134 4.0 6.0 0.00 0.00 0.00 78 1007.9
20260505225300 81 133 5.0 9.0 0.00 0.00 0.00 78 1007.9
20260505224755 82 148 5.0 9.0 0.00 0.00 0.00 77 1008.1
20260505224253 82 284 4.0 7.0 0.00 0.00 0.00 77 1008.0
20260505223751 82 130 3.0 6.0 0.00 0.00 0.00 76 1008.1
20260505223247 82 164 2.0 6.0 0.00 0.00 0.00 76 1007.9
20260505222743 83 310 3.0 8.0 0.00 0.00 0.00 76 1008.0
20260505222239 82 142 6.0 9.0 0.00 0.00 0.00 76 1008.1
20260505221737 83 146 4.0 7.0 0.00 0.00 0.00 76 1008.1
20260505221233 83 106 6.0 11.0 0.00 0.00 0.00 75 1008.2
20260505220730 83 233 0.0 7.0 0.00 0.00 0.00 75 1008.3
20260505220227 84 157 5.0 9.0 0.00 0.00 0.00 73 1008.2
20260505215726 83 167 2.0 4.0 0.00 0.00 0.00 75 1008.0
20260505215223 83 123 4.0 8.0 0.00 0.00 0.00 75 1008.1
20260505214720 83 130 4.0 4.0 0.00 0.00 0.00 76 1008.3
20260505214218 83 249 2.0 4.0 0.00 0.00 0.00 76 1008.4
20260505213715 83 331 1.0 6.0 0.00 0.00 0.00 76 1008.6
20260505213212 83 135 4.0 7.0 0.00 0.00 0.00 76 1008.5
20260505212708 83 5 1.0 7.0 0.00 0.00 0.00 76 1008.6
20260505212206 83 120 2.0 10.0 0.00 0.00 0.00 76 1008.7
20260505211702 82 161 2.0 4.0 0.00 0.00 0.00 76 1008.6
20260505211200 83 133 4.0 8.0 0.00 0.00 0.00 75 1008.6
20260505210656 83 274 2.0 6.0 0.00 0.00 0.00 74 1008.7
20260505210153 83 25 2.0 6.0 0.00 0.00 0.00 74 1008.8
20260505205650 84 244 3.0 7.0 0.00 0.00 0.00 73 1009.1
20260505205148 84 340 1.0 6.0 0.00 0.00 0.00 72 1009.1
20260505204645 84 148 4.0 4.0 0.00 0.00 0.00 73 1009.1
20260505204143 84 140 1.0 7.0 0.00 0.00 0.00 73 1009.2
20260505203640 84 166 4.0 9.0 0.00 0.00 0.00 73 1009.3
20260505203136 85 51 2.0 7.0 0.00 0.00 0.00 72 1009.4
20260505202632 85 89 3.0 6.0 0.00 0.00 0.00 72 1009.3
20260505202128 84 101 1.0 7.0 0.00 0.00 0.00 73 1009.7
20260505201625 84 142 4.0 8.0 0.00 0.00 0.00 74 1009.4
20260505201123 84 160 5.0 9.0 0.00 0.00 0.00 74 1009.5
20260505200621 84 102 3.0 9.0 0.00 0.00 0.00 75 1009.7
20260505200118 84 103 3.0 4.0 0.00 0.00 0.00 74 1009.7
20260505195614 84 215 3.0 4.0 0.00 0.00 0.00 75 1009.6
20260505195111 84 99 3.0 6.0 0.00 0.00 0.00 75 1009.6
20260505194608 84 25 1.0 4.0 0.00 0.00 0.00 73 1009.7
20260505194104 83 176 4.0 4.0 0.00 0.00 0.00 74 1009.8
20260505193601 83 125 2.0 4.0 0.00 0.00 0.00 74 1010.0
20260505193058 83 173 2.0 4.0 0.00 0.00 0.00 74 1010.0
20260505192557 83 126 3.0 7.0 0.00 0.00 0.00 74 1009.9
20260505192054 83 169 3.0 6.0 0.00 0.00 0.00 75 1010.0
20260505191552 83 151 1.0 3.0 0.00 0.00 0.00 75 1010.0
20260505191049 83 94 3.0 4.0 0.00 0.00 0.00 74 1009.8
20260505190544 84 15 2.0 11.0 0.00 0.00 0.00 73 1009.9
20260505190040 83 95 2.0 7.0 0.00 0.00 0.00 75 1010.1
20260505185537 83 88 2.0 7.0 0.00 0.00 0.00 76 1009.9
20260505185033 83 116 4.0 7.0 0.00 0.00 0.00 76 1010.0
20260505184530 83 116 1.0 3.0 0.00 0.00 0.00 77 1010.1
20260505184027 83 46 3.0 8.0 0.00 0.00 0.00 76 1010.3
20260505183524 82 285 2.0 3.0 0.00 0.00 0.00 77 1010.2
20260505183021 81 142 1.0 7.0 0.00 0.00 0.00 79 1010.2
20260505182518 82 279 6.0 7.0 0.00 0.00 0.00 77 1010.3
20260505182015 82 200 2.0 3.0 0.00 0.00 0.00 77 1010.3
20260505181511 82 160 1.0 3.0 0.00 0.00 0.00 77 1010.3
20260505181008 82 144 8.0 13.0 0.00 0.00 0.00 76 1010.4
20260505180503 82 168 6.0 7.0 0.00 0.00 0.00 77 1010.5
20260505175000 82 57 2.0 6.0 0.00 0.00 0.00 77 1010.6
20260505174457 82 57 2.0 6.0 0.00 0.00 0.00 77 1010.6
20260505173953 82 212 2.0 4.0 0.00 0.00 0.00 78 1010.6
20260505173449 81 266 0.0 7.0 0.00 0.00 0.00 79 1010.6
20260505172946 81 117 2.0 9.0 0.00 0.00 0.00 80 1010.6
20260505172445 80 193 1.0 4.0 0.00 0.00 0.00 80 1010.6
20260505171944 80 139 1.0 3.0 0.00 0.00 0.00 81 1010.7
20260505171441 80 200 1.0 4.0 0.00 0.00 0.00 81 1010.9
20260505170937 80 123 2.0 4.0 0.00 0.00 0.00 81 1010.8
20260505170434 80 115 2.0 3.0 0.00 0.00 0.00 80 1010.9
20260505165930 80 84 4.0 4.0 0.00 0.00 0.00 80 1010.8
20260505165426 80 100 1.0 4.0 0.00 0.00 0.00 80 1010.7
20260505164921 80 118 2.0 8.0 0.00 0.00 0.00 80 1010.9
20260505164418 81 141 5.0 8.0 0.00 0.00 0.00 79 1010.7
20260505163916 80 138 0.0 3.0 0.00 0.00 0.00 80 1010.8
20260505163415 81 129 2.0 3.0 0.00 0.00 0.00 79 1010.6
20260505162914 81 92 3.0 4.0 0.00 0.00 0.00 80 1010.8
20260505162409 80 261 0.0 7.0 0.00 0.00 0.00 82 1010.8
20260505161906 80 202 2.0 7.0 0.00 0.00 0.00 81 1010.6
20260505161403 80 110 2.0 4.0 0.00 0.00 0.00 81 1010.9
20260505160900 80 130 3.0 3.0 0.00 0.00 0.00 81 1010.8
20260505160358 80 270 2.0 3.0 0.00 0.00 0.00 81 1010.5
20260505151149 78 146 7.0 9.0 0.00 0.00 0.00 82 1010.3
20260505150645 78 146 7.0 9.0 0.00 0.00 0.00 82 1010.3
20260505150142 79 119 4.0 9.0 0.00 0.00 0.00 83 1010.4
20260505140611 76 133 1.0 3.0 0.00 0.00 0.00 88 1010.5
20260505140108 76 145 3.0 7.0 0.00 0.00 0.00 88 1010.3
20260505125024 74 79 0.0 2.0 0.00 0.00 0.00 92 1010.1
20260505124521 73 137 2.0 6.0 0.00 0.00 0.00 92 1009.9
20260505124017 73 132 0.0 1.0 0.00 0.00 0.00 93 1010.0
20260505123514 73 112 0.0 1.0 0.00 0.00 0.00 93 1010.1
20260505123010 72 135 0.0 2.0 0.00 0.00 0.00 93 1009.8
20260505122507 72 147 4.0 4.0 0.00 0.00 0.00 93 1009.9
20260505122004 72 81 2.0 2.0 0.00 0.00 0.00 93 1009.7
20260505121500 72 123 1.0 2.0 0.00 0.00 0.00 93 1009.6
20260505120957 72 143 2.0 4.0 0.00 0.00 0.00 93 1009.3
20260505120453 72 146 2.0 4.0 0.00 0.00 0.00 92 1009.5
20260505115952 72 144 2.0 2.0 0.00 0.00 0.00 92 1009.4
20260505115449 72 140 0.0 2.0 0.00 0.00 0.00 92 1009.7
20260505114947 72 124 1.0 2.0 0.00 0.00 0.00 92 1009.8
20260505114443 72 135 2.0 3.0 0.00 0.00 0.00 93 1010.0
20260505113940 72 131 2.0 2.0 0.00 0.00 0.00 92 1009.7
20260505113436 72 130 1.0 2.0 0.00 0.00 0.00 92 1009.7
20260505112932 72 139 3.0 4.0 0.00 0.00 0.00 92 1009.5
20260505112430 72 129 2.0 3.0 0.00 0.00 0.00 92 1009.5
20260505111926 72 164 0.0 3.0 0.00 0.00 0.00 93 1009.4
20260505111420 72 130 2.0 3.0 0.00 0.00 0.00 93 1009.4
20260505110917 72 140 0.0 4.0 0.00 0.00 0.00 93 1009.8
20260505110414 71 124 0.0 2.0 0.00 0.00 0.00 93 1009.7
20260505101845 71 137 1.0 2.0 0.00 0.00 0.00 92 1009.6
20260505101339 71 136 0.0 2.0 0.00 0.00 0.00 93 1009.7
20260505100835 71 106 0.0 0.0 0.00 0.00 0.00 93 1009.9
20260505100332 71 124 1.0 1.0 0.00 0.00 0.00 93 1009.9
20260505095828 71 131 0.0 1.0 0.00 0.00 0.00 92 1009.8
20260505095326 71 132 1.0 2.0 0.00 0.00 0.00 92 1009.8
20260505094822 71 132 2.0 4.0 0.00 0.00 0.00 92 1009.6
20260505094319 71 129 0.0 3.0 0.00 0.00 0.00 92 1009.6
20260505093814 71 137 2.0 3.0 0.00 0.00 0.00 92 1009.7
20260505093312 71 147 2.0 2.0 0.00 0.00 0.00 92 1009.9
20260505092808 71 135 1.0 3.0 0.00 0.00 0.00 92 1009.8
20260505092307 71 146 1.0 2.0 0.00 0.00 0.00 92 1010.1
20260505091804 71 124 1.0 1.0 0.00 0.00 0.00 92 1009.9
20260505091302 70 134 1.0 2.0 0.00 0.00 0.00 92 1010.1
20260505090800 70 139 0.0 1.0 0.00 0.00 0.00 92 1010.0
20260505090258 71 142 0.0 1.0 0.00 0.00 0.00 92 1010.0
20260505085755 71 106 2.0 3.0 0.00 0.00 0.00 92 1010.1
20260505085253 71 136 1.0 2.0 0.00 0.00 0.00 92 1010.1
20260505084750 71 120 1.0 2.0 0.00 0.00 0.00 92 1010.0
20260505084249 70 132 0.0 1.0 0.00 0.00 0.00 92 1010.2
20260505083745 70 145 0.0 1.0 0.00 0.00 0.00 92 1010.2
20260505083242 70 227 0.0 1.0 0.00 0.00 0.00 92 1010.1
20260505082739 70 146 0.0 2.0 0.00 0.00 0.00 92 1009.9
20260505082236 70 142 2.0 2.0 0.00 0.00 0.00 92 1010.2
20260505081732 69 152 0.0 2.0 0.00 0.00 0.00 93 1010.2
20260505081229 69 114 1.0 2.0 0.00 0.00 0.00 93 1010.1
20260505080726 69 105 0.0 0.0 0.00 0.00 0.00 92 1010.3
20260505080221 69 144 1.0 3.0 0.00 0.00 0.00 92 1010.1
20260505075717 69 146 2.0 2.0 0.00 0.00 0.00 92 1010.2
20260505075215 69 132 0.0 2.0 0.00 0.00 0.00 92 1010.3
20260505074712 69 144 0.0 2.0 0.00 0.00 0.00 91 1010.5
20260505074209 69 120 0.0 1.0 0.00 0.00 0.00 91 1010.3
20260505073706 69 141 0.0 2.0 0.00 0.00 0.00 91 1010.4
20260505073204 69 151 1.0 3.0 0.00 0.00 0.00 91 1010.5
20260505072700 69 140 2.0 6.0 0.00 0.00 0.00 91 1010.4
20260505072156 69 128 2.0 2.0 0.00 0.00 0.00 90 1010.6
20260505071652 69 128 1.0 4.0 0.00 0.00 0.00 90 1010.6
20260505071150 69 152 1.0 6.0 0.00 0.00 0.00 90 1010.7
20260505070647 69 152 2.0 3.0 0.00 0.00 0.00 90 1011.0
20260505070143 69 146 2.0 4.0 0.00 0.00 0.00 90 1010.8
20260505065639 69 107 3.0 3.0 0.00 0.00 0.00 90 1010.8
20260505065136 69 142 1.0 3.0 0.00 0.00 0.00 90 1010.9
20260505064633 69 134 1.0 3.0 0.00 0.00 0.00 90 1011.0
20260505064131 69 152 2.0 3.0 0.00 0.00 0.00 90 1011.2
20260505063628 69 130 0.0 2.0 0.00 0.00 0.00 90 1011.3
20260505063124 69 100 0.0 3.0 0.00 0.00 0.00 90 1011.3
20260505062621 69 135 1.0 2.0 0.00 0.00 0.00 90 1011.3
20260505062118 69 124 0.0 2.0 0.00 0.00 0.00 89 1011.5
20260505061615 69 153 1.0 1.0 0.00 0.00 0.00 89 1011.6
20260505061113 69 155 1.0 2.0 0.00 0.00 0.00 89 1011.6
20260505060610 69 138 0.0 3.0 0.00 0.00 0.00 88 1011.5
20260505060107 69 154 1.0 3.0 0.00 0.00 0.00 88 1011.4
20260505055602 69 149 2.0 4.0 0.00 0.00 0.00 88 1011.5
20260505055059 69 104 1.0 3.0 0.00 0.00 0.00 88 1011.5
20260505054556 69 138 1.0 3.0 0.00 0.00 0.00 88 1011.6
20260505054055 69 139 2.0 3.0 0.00 0.00 0.00 87 1011.6
20260505053551 69 260 2.0 3.0 0.00 0.00 0.00 87 1011.7
20260505053048 69 125 2.0 3.0 0.00 0.00 0.00 87 1011.9
20260505052545 69 136 2.0 3.0 0.00 0.00 0.00 87 1011.9
20260505052043 69 131 0.0 2.0 0.00 0.00 0.00 87 1011.8
20260505051539 69 129 1.0 2.0 0.00 0.00 0.00 86 1011.7
20260505051037 69 105 1.0 3.0 0.00 0.00 0.00 86 1011.9
20260505050535 69 151 3.0 3.0 0.00 0.00 0.00 86 1011.9
20260505041503 70 99 4.0 4.0 0.00 0.00 0.00 83 1012.1
20260505041000 70 158 2.0 3.0 0.00 0.00 0.00 83 1012.2
20260505040457 70 148 1.0 4.0 0.00 0.00 0.00 83 1012.1
20260505035954 70 131 2.0 3.0 0.00 0.00 0.00 83 1011.9
20260505035450 71 119 0.0 3.0 0.00 0.00 0.00 82 1012.1
20260505034948 71 150 2.0 3.0 0.00 0.00 0.00 82 1012.2
20260505034444 71 135 2.0 3.0 0.00 0.00 0.00 82 1012.3
20260505033941 71 117 2.0 3.0 0.00 0.00 0.00 82 1012.4
20260505033438 71 142 3.0 4.0 0.00 0.00 0.00 82 1012.3
20260505032936 71 131 0.0 2.0 0.00 0.00 0.00 81 1012.4
20260505032433 71 146 1.0 2.0 0.00 0.00 0.00 81 1012.2
20260505031929 71 152 3.0 4.0 0.00 0.00 0.00 81 1012.4
20260505031427 71 153 4.0 4.0 0.00 0.00 0.00 80 1012.3
20260505030923 71 106 1.0 4.0 0.00 0.00 0.00 80 1012.3
20260505030419 72 137 0.0 3.0 0.00 0.00 0.00 79 1012.5
20260505025915 72 103 0.0 3.0 0.00 0.00 0.00 79 1012.3
20260505025412 72 121 1.0 3.0 0.00 0.00 0.00 78 1012.4
20260505024911 73 121 1.0 3.0 0.00 0.00 0.00 78 1012.3
20260505024408 73 151 4.0 6.0 0.00 0.00 0.00 77 1012.3
20260505023905 73 130 2.0 4.0 0.00 0.00 0.00 77 1012.3
20260505023402 73 139 2.0 4.0 0.00 0.00 0.00 77 1012.2
20260505022859 73 134 1.0 6.0 0.00 0.00 0.00 77 1012.2
20260505022356 73 185 4.0 7.0 0.00 0.00 0.00 76 1012.1
20260505021854 73 315 1.0 3.0 0.00 0.00 0.00 77 1012.2
20260505021350 73 117 2.0 4.0 0.00 0.00 0.00 76 1012.1
20260505020846 73 138 6.0 8.0 0.00 0.00 0.00 76 1012.2
20260505020341 73 164 4.0 6.0 0.00 0.00 0.00 76 1012.1
20260505015838 73 128 2.0 3.0 0.00 0.00 0.00 76 1012.2
20260505015336 73 135 2.0 7.0 0.00 0.00 0.00 76 1012.1
20260505014833 73 95 1.0 8.0 0.00 0.00 0.00 76 1011.7
20260505014330 73 144 2.0 3.0 0.00 0.00 0.00 76 1011.8
20260505013826 73 143 6.0 7.0 0.00 0.00 0.00 76 1011.9
20260505013323 73 262 2.0 7.0 0.00 0.00 0.00 76 1011.7
20260505012822 73 110 5.0 8.0 0.00 0.00 0.00 75 1011.6
20260505012319 73 144 5.0 11.0 0.00 0.00 0.00 75 1011.8
20260505011815 73 140 4.0 8.0 0.00 0.00 0.00 75 1011.9
20260505011312 73 268 4.0 7.0 0.00 0.00 0.00 75 1011.8
20260505010808 74 130 4.0 7.0 0.00 0.00 0.00 74 1011.9
20260505010304 74 48 0.0 6.0 0.00 0.00 0.00 74 1011.8
20260505005800 74 133 2.0 4.0 0.00 0.00 0.00 73 1011.7
20260505005258 74 70 3.0 8.0 0.00 0.00 0.00 73 1011.7
20260505004755 74 144 4.0 9.0 0.00 0.00 0.00 72 1011.6
20260505004251 75 140 6.0 9.0 0.00 0.00 0.00 72 1011.8
20260505003748 75 216 4.0 8.0 0.00 0.00 0.00 72 1011.7
20260505003246 75 262 4.0 9.0 0.00 0.00 0.00 71 1011.6
20260505002742 75 132 3.0 6.0 0.00 0.00 0.00 71 1011.4
20260505002240 75 269 1.0 9.0 0.00 0.00 0.00 71 1011.6
20260505001737 76 108 1.0 4.0 0.00 0.00 0.00 70 1011.4
20260505001234 76 66 5.0 10.0 0.00 0.00 0.00 70 1011.5
20260505000731 76 153 4.0 9.0 0.00 0.00 0.00 69 1011.5
20260505000229 76 171 4.0 8.0 0.00 0.00 0.00 69 1011.5
20260504235725 77 167 6.0 9.0 0.00 0.00 0.00 68 1011.6
20260504235221 77 145 5.0 7.0 0.00 0.00 0.00 67 1011.6
20260504234719 77 155 5.0 9.0 0.00 0.00 0.00 67 1011.7
20260504234216 77 169 4.0 8.0 0.00 0.00 0.00 67 1011.8
20260504233712 78 161 6.0 11.0 0.00 0.00 0.00 66 1011.9
20260504233208 77 152 7.0 11.0 0.00 0.00 0.00 67 1012.0
20260504232706 77 112 3.0 6.0 0.00 0.00 0.00 67 1012.0
20260504232202 78 133 6.0 9.0 0.00 0.00 0.00 66 1011.9
20260504231659 78 121 2.0 4.0 0.00 0.00 0.00 67 1012.1
20260504231155 78 155 5.0 8.0 0.00 0.00 0.00 67 1012.2
20260504230652 78 117 2.0 9.0 0.00 0.00 0.00 66 1012.2
20260504230151 78 80 4.0 6.0 0.00 0.00 0.00 66 1012.4